Time,TemperatureF,DewpointF,PressureIn,WindDirection,WindDirectionDegrees,WindSpeedMPH,WindSpeedGustMPH,Humidity,HourlyPrecipIn,Conditions,Clouds,dailyrainin,SoftwareType,DateUTC
2013-06-06 00:13:00,73.0,73.0,-100.00,NW,314,1.0,-999.0,100,0.34,,,-99.99,,2013-06-06 04:13:00,
2013-06-06 00:23:00,73.0,73.0,-100.00,NW,314,1.0,-999.0,100,0.34,,,-99.99,,2013-06-06 04:23:00,
2013-06-06 00:33:00,73.0,73.0,-100.00,NW,314,1.0,-999.0,100,0.34,,,-99.99,,2013-06-06 04:33:00,
2013-06-06 00:42:00,73.0,73.0,-100.00,NW,314,1.0,-999.0,100,0.34,,,-99.99,,2013-06-06 04:42:00,
2013-06-06 01:12:00,73.0,73.0,-100.00,North,6,0.0,-999.0,100,0.19,,,-99.99,,2013-06-06 05:12:00,
2013-06-06 01:23:00,73.0,73.0,-100.00,North,6,0.0,-999.0,100,0.19,,,-99.99,,2013-06-06 05:23:00,
2013-06-06 01:32:00,73.0,73.0,-100.00,North,6,0.0,-999.0,100,0.19,,,-99.99,,2013-06-06 05:32:00,
2013-06-06 01:42:00,73.0,73.0,-100.00,North,6,0.0,-999.0,100,0.19,,,-99.99,,2013-06-06 05:42:00,
2013-06-06 02:12:00,73.0,73.0,-100.00,ENE,58,1.0,-999.0,100,0.01,,,-99.99,,2013-06-06 06:12:00,
2013-06-06 02:22:00,73.0,73.0,-100.00,ENE,58,1.0,-999.0,100,0.01,,,-99.99,,2013-06-06 06:22:00,
2013-06-06 02:33:00,73.0,73.0,-100.00,ENE,58,1.0,-999.0,100,0.01,,,-99.99,,2013-06-06 06:33:00,
2013-06-06 02:42:00,73.0,73.0,-100.00,ENE,58,1.0,-999.0,100,0.01,,,-99.99,,2013-06-06 06:42:00,
2013-06-06 03:12:00,73.0,73.0,-100.00,ESE,106,0.0,-999.0,100,0.00,,,-99.99,,2013-06-06 07:12:00,
2013-06-06 03:22:00,73.0,73.0,-100.00,ESE,106,0.0,-999.0,100,0.00,,,-99.99,,2013-06-06 07:22:00,
2013-06-06 03:32:00,73.0,73.0,-100.00,ESE,106,0.0,-999.0,100,0.00,,,-99.99,,2013-06-06 07:32:00,
2013-06-06 03:42:00,73.0,73.0,-100.00,ESE,106,0.0,-999.0,100,0.00,,,-99.99,,2013-06-06 07:42:00,
2013-06-06 04:12:00,73.0,73.0,-100.00,South,174,0.0,-999.0,100,0.00,,,-99.99,,2013-06-06 08:12:00,
2013-06-06 04:22:00,73.0,73.0,-100.00,South,174,0.0,-999.0,100,0.00,,,-99.99,,2013-06-06 08:22:00,
2013-06-06 04:32:00,73.0,73.0,-100.00,South,174,0.0,-999.0,100,0.00,,,-99.99,,2013-06-06 08:32:00,
2013-06-06 04:42:00,73.0,73.0,-100.00,South,174,0.0,-999.0,100,0.00,,,-99.99,,2013-06-06 08:42:00,
2013-06-06 05:12:00,72.0,72.0,-100.00,SSW,196,0.0,-999.0,100,0.00,,,-99.99,,2013-06-06 09:12:00,
2013-06-06 05:22:00,72.0,72.0,-100.00,SSW,196,0.0,-999.0,100,0.00,,,-99.99,,2013-06-06 09:22:00,
2013-06-06 05:33:00,72.0,72.0,-100.00,SSW,196,0.0,-999.0,100,0.00,,,-99.99,,2013-06-06 09:33:00,
2013-06-06 05:43:00,72.0,72.0,-100.00,SSW,196,0.0,-999.0,100,0.00,,,-99.99,,2013-06-06 09:43:00,
2013-06-06 06:12:00,72.0,72.0,-100.00,SSW,204,0.0,-999.0,100,0.00,,,-99.99,,2013-06-06 10:12:00,
2013-06-06 06:23:00,72.0,72.0,-100.00,SSW,204,0.0,-999.0,100,0.00,,,-99.99,,2013-06-06 10:23:00,
2013-06-06 06:33:00,72.0,72.0,-100.00,SSW,204,0.0,-999.0,100,0.00,,,-99.99,,2013-06-06 10:33:00,
2013-06-06 06:42:00,72.0,72.0,-100.00,SSW,204,0.0,-999.0,100,0.00,,,-99.99,,2013-06-06 10:42:00,
2013-06-06 07:12:00,72.0,72.0,-100.00,WSW,237,0.0,-999.0,100,0.00,,,-99.99,,2013-06-06 11:12:00,
2013-06-06 07:23:00,72.0,72.0,-100.00,WSW,237,0.0,-999.0,100,0.00,,,-99.99,,2013-06-06 11:23:00,
2013-06-06 07:32:00,72.0,72.0,-100.00,WSW,237,0.0,-999.0,100,0.00,,,-99.99,,2013-06-06 11:32:00,
2013-06-06 07:42:00,72.0,72.0,-100.00,WSW,237,0.0,-999.0,100,0.00,,,-99.99,,2013-06-06 11:42:00,
2013-06-06 08:13:00,73.0,73.0,-100.00,West,269,0.0,-999.0,100,0.00,,,-99.99,,2013-06-06 12:13:00,
2013-06-06 08:23:00,73.0,73.0,-100.00,West,269,0.0,-999.0,100,0.00,,,-99.99,,2013-06-06 12:23:00,
2013-06-06 08:33:00,73.0,73.0,-100.00,West,269,0.0,-999.0,100,0.00,,,-99.99,,2013-06-06 12:33:00,
2013-06-06 08:43:00,73.0,73.0,-100.00,West,269,0.0,-999.0,100,0.00,,,-99.99,,2013-06-06 12:43:00,
2013-06-06 09:13:00,76.0,72.0,-100.00,SW,235,0.0,-999.0,88,0.00,,,-99.99,,2013-06-06 13:13:00,
2013-06-06 09:23:00,76.0,72.0,-100.00,SW,235,0.0,-999.0,88,0.00,,,-99.99,,2013-06-06 13:23:00,
2013-06-06 09:33:00,76.0,72.0,-100.00,SW,235,0.0,-999.0,88,0.00,,,-99.99,,2013-06-06 13:33:00,
2013-06-06 09:43:00,76.0,72.0,-100.00,SW,235,0.0,-999.0,88,0.00,,,-99.99,,2013-06-06 13:43:00,
2013-06-06 10:13:00,78.0,71.0,-100.00,SW,218,1.0,-999.0,78,0.00,,,-99.99,,2013-06-06 14:13:00,
2013-06-06 10:23:00,78.0,71.0,-100.00,SW,218,1.0,-999.0,78,0.00,,,-99.99,,2013-06-06 14:23:00,
2013-06-06 10:33:00,78.0,71.0,-100.00,SW,218,1.0,-999.0,78,0.00,,,-99.99,,2013-06-06 14:33:00,
2013-06-06 10:43:00,78.0,71.0,-100.00,SW,218,1.0,-999.0,78,0.00,,,-99.99,,2013-06-06 14:43:00,
2013-06-06 11:13:00,79.0,72.0,-100.00,SE,145,1.0,-999.0,79,0.00,,,-99.99,,2013-06-06 15:13:00,
2013-06-06 11:23:00,79.0,72.0,-100.00,SE,145,1.0,-999.0,79,0.00,,,-99.99,,2013-06-06 15:23:00,
2013-06-06 11:33:00,79.0,72.0,-100.00,SE,145,1.0,-999.0,79,0.00,,,-99.99,,2013-06-06 15:33:00,
2013-06-06 11:43:00,79.0,72.0,-100.00,SE,145,1.0,-999.0,79,0.00,,,-99.99,,2013-06-06 15:43:00,
2013-06-06 12:13:00,79.0,73.0,-100.00,SE,135,3.0,-999.0,81,0.00,,,-99.99,,2013-06-06 16:13:00,
2013-06-06 12:23:00,79.0,73.0,-100.00,SE,135,3.0,-999.0,81,0.00,,,-99.99,,2013-06-06 16:23:00,
2013-06-06 12:33:00,79.0,73.0,-100.00,SE,135,3.0,-999.0,81,0.00,,,-99.99,,2013-06-06 16:33:00,
2013-06-06 12:44:00,79.0,73.0,-100.00,SE,135,3.0,-999.0,81,0.00,,,-99.99,,2013-06-06 16:44:00,
2013-06-06 13:13:00,79.0,73.0,-100.00,SE,125,5.0,-999.0,83,0.00,,,-99.99,,2013-06-06 17:13:00,
2013-06-06 13:23:00,79.0,73.0,-100.00,SE,125,5.0,-999.0,83,0.00,,,-99.99,,2013-06-06 17:23:00,
2013-06-06 13:33:00,79.0,73.0,-100.00,SE,125,5.0,-999.0,83,0.00,,,-99.99,,2013-06-06 17:33:00,
2013-06-06 13:43:00,79.0,73.0,-100.00,SE,125,5.0,-999.0,83,0.00,,,-99.99,,2013-06-06 17:43:00,
2013-06-06 14:13:00,78.0,75.0,-100.00,SE,138,6.0,-999.0,91,0.01,,,-99.99,,2013-06-06 18:13:00,
2013-06-06 14:23:00,78.0,75.0,-100.00,SE,138,6.0,-999.0,91,0.01,,,-99.99,,2013-06-06 18:23:00,
2013-06-06 14:33:00,78.0,75.0,-100.00,SE,138,6.0,-999.0,91,0.01,,,-99.99,,2013-06-06 18:33:00,
2013-06-06 14:43:00,78.0,75.0,-100.00,SE,138,6.0,-999.0,91,0.01,,,-99.99,,2013-06-06 18:43:00,
2013-06-06 15:13:00,76.0,73.0,-100.00,SSE,148,4.0,-999.0,91,0.02,,,-99.99,,2013-06-06 19:13:00,
2013-06-06 15:23:00,76.0,73.0,-100.00,SSE,148,4.0,-999.0,91,0.02,,,-99.99,,2013-06-06 19:23:00,
2013-06-06 15:33:00,76.0,73.0,-100.00,SSE,148,4.0,-999.0,91,0.02,,,-99.99,,2013-06-06 19:33:00,
2013-06-06 15:43:00,76.0,73.0,-100.00,SSE,148,4.0,-999.0,91,0.02,,,-99.99,,2013-06-06 19:43:00,
2013-06-06 16:13:00,75.0,74.0,-100.00,SE,142,3.0,-999.0,94,0.03,,,-99.99,,2013-06-06 20:13:00,
2013-06-06 16:23:00,75.0,74.0,-100.00,SE,142,3.0,-999.0,94,0.03,,,-99.99,,2013-06-06 20:23:00,
2013-06-06 16:33:00,75.0,74.0,-100.00,SE,142,3.0,-999.0,94,0.03,,,-99.99,,2013-06-06 20:33:00,
2013-06-06 16:43:00,75.0,74.0,-100.00,SE,142,3.0,-999.0,94,0.03,,,-99.99,,2013-06-06 20:43:00,
2013-06-06 17:13:00,77.0,73.0,-100.00,ESE,123,5.0,-999.0,87,0.00,,,-99.99,,2013-06-06 21:13:00,
2013-06-06 17:23:00,77.0,73.0,-100.00,ESE,123,5.0,-999.0,87,0.00,,,-99.99,,2013-06-06 21:23:00,
2013-06-06 17:33:00,77.0,73.0,-100.00,ESE,123,5.0,-999.0,87,0.00,,,-99.99,,2013-06-06 21:33:00,
2013-06-06 17:44:00,77.0,73.0,-100.00,ESE,123,5.0,-999.0,87,0.00,,,-99.99,,2013-06-06 21:44:00,
2013-06-06 18:13:00,77.0,73.0,-100.00,ESE,115,7.0,-999.0,86,0.00,,,-99.99,,2013-06-06 22:13:00,
2013-06-06 18:23:00,77.0,73.0,-100.00,ESE,115,7.0,-999.0,86,0.00,,,-99.99,,2013-06-06 22:23:00,
2013-06-06 18:33:00,77.0,73.0,-100.00,ESE,115,7.0,-999.0,86,0.00,,,-99.99,,2013-06-06 22:33:00,
2013-06-06 18:43:00,77.0,73.0,-100.00,ESE,115,7.0,-999.0,86,0.00,,,-99.99,,2013-06-06 22:43:00,
2013-06-06 19:13:00,76.0,73.0,-100.00,ESE,105,6.0,-999.0,90,0.01,,,-99.99,,2013-06-06 23:13:00,
2013-06-06 19:22:00,76.0,73.0,-100.00,ESE,105,6.0,-999.0,90,0.01,,,-99.99,,2013-06-06 23:22:00,
2013-06-06 19:33:00,76.0,73.0,-100.00,ESE,105,6.0,-999.0,90,0.01,,,-99.99,,2013-06-06 23:33:00,
2013-06-06 19:43:00,76.0,73.0,-100.00,ESE,105,6.0,-999.0,90,0.01,,,-99.99,,2013-06-06 23:43:00,
2013-06-06 20:13:00,73.0,72.0,-100.00,ESE,117,7.0,-999.0,98,0.19,,,-99.99,,2013-06-07 00:13:00,
2013-06-06 20:22:00,73.0,72.0,-100.00,ESE,117,7.0,-999.0,98,0.19,,,-99.99,,2013-06-07 00:22:00,
2013-06-06 20:32:00,73.0,72.0,-100.00,ESE,117,7.0,-999.0,98,0.19,,,-99.99,,2013-06-07 00:32:00,
2013-06-06 20:42:00,73.0,72.0,-100.00,ESE,117,7.0,-999.0,98,0.19,,,-99.99,,2013-06-07 00:42:00,
2013-06-06 21:12:00,73.0,73.0,-100.00,East,87,5.0,-999.0,100,0.29,,,-99.99,,2013-06-07 01:12:00,
2013-06-06 21:22:00,73.0,73.0,-100.00,East,87,5.0,-999.0,100,0.29,,,-99.99,,2013-06-07 01:22:00,
2013-06-06 21:32:00,73.0,73.0,-100.00,East,87,5.0,-999.0,100,0.29,,,-99.99,,2013-06-07 01:32:00,
2013-06-06 21:42:00,73.0,73.0,-100.00,East,87,5.0,-999.0,100,0.29,,,-99.99,,2013-06-07 01:42:00,
2013-06-06 22:12:00,74.0,74.0,-100.00,ENE,70,5.0,-999.0,100,0.54,,,-99.99,,2013-06-07 02:12:00,
2013-06-06 22:22:00,74.0,74.0,-100.00,ENE,70,5.0,-999.0,100,0.54,,,-99.99,,2013-06-07 02:22:00,
2013-06-06 22:32:00,74.0,74.0,-100.00,ENE,70,5.0,-999.0,100,0.54,,,-99.99,,2013-06-07 02:32:00,
2013-06-06 22:42:00,74.0,74.0,-100.00,ENE,70,5.0,-999.0,100,0.54,,,-99.99,,2013-06-07 02:42:00,
2013-06-06 23:12:00,76.0,75.0,-100.00,ESE,114,6.0,-999.0,98,0.00,,,-99.99,,2013-06-07 03:12:00,
2013-06-06 23:22:00,76.0,75.0,-100.00,ESE,114,6.0,-999.0,98,0.00,,,-99.99,,2013-06-07 03:22:00,
2013-06-06 23:33:00,76.0,75.0,-100.00,ESE,114,6.0,-999.0,98,0.00,,,-99.99,,2013-06-07 03:33:00,
2013-06-06 23:43:00,76.0,75.0,-100.00,ESE,114,6.0,-999.0,98,0.00,,,-99.99,,2013-06-07 03:43:00,